Regional Weather Roundup
Issued by NWS Newport/Morehead, NC

Current Version | Previous Version | Text Only | Print | Product List | Glossary Off
Versions: 1 2 3 4 5 6 7 8 9 10 11 12 13 14 15 16 17 18 19 20 21 22 23 24 25 26 27 28 29 30 31 32 33 34 35 36 37 38 39 40 41 42 43 44 45 46 47 48 49 50
000 ASUS42 KMHX 101425 RWRMHX WEATHER ROUNDUP FOR EASTERN NORTH CAROLINA NATIONAL WEATHER SERVICE NEWPORT/MOREHEAD CITY NC 900 AM EST SUN DEC 10 2017 NOTE: "FAIR" INDICATES FEW OR NO CLOUDS BELOW 12,000 FEET WITH NO SIGNIFICANT WEATHER AND/OR OBSTRUCTIONS TO VISIBILITY NCZ015>017-031-032-045>047-102-103-101500- NORTH COAST CITY SKY/WX TMP DP RH WIND PRES REMARKS EDENTON SUNNY 38 31 75 NW12G17 30.13F ELIZABETH CITY SUNNY 37 31 78 W13 30.12R KITTY HAWK MOSUNNY 37 31 79 NW10G18 30.10R MANTEO SUNNY 39 29 69 NW14G21 30.13R $$ NCZ045>047-081-094-103-104-101500- CENTRAL COAST CITY SKY/WX TMP DP RH WIND PRES REMARKS FRISCO SUNNY 41 31 67 NW12G23 30.12R $$ NCZ095-097-098-100-101-101500- SOUTHERN COAST CITY SKY/WX TMP DP RH WIND PRES REMARKS BEAUFORT SUNNY 37 29 72 NW16 30.17R CEDAR ISLAND NOT AVBL JACKSONVILLE SUNNY 36 29 75 W13 30.19R PINEY ISLAND N/A N/A N/A N/A NW15G24 30.15R WILMINGTON SUNNY 38 28 67 W10 30.22R $$ NCZ011>013-027>030-043-044-078>080-089-090>093-098-101500- COASTAL PLAIN CITY SKY/WX TMP DP RH WIND PRES REMARKS AHOSKIE SUNNY 33 28 82 W3 30.14R CLINTON SUNNY 35 29 80 W7 30.23R ELIZABETHTOWN NOT AVBL GOLDSBORO SUNNY 35 27 72 W10 30.17R GREENVILLE SUNNY 36 28 75 W3 30.18R HAVELOCK SUNNY 37 32 82 W12 30.18R KENANSVILLE SUNNY 36 27 69 W10 30.21R KINSTON SUNNY 36 28 75 W7 30.19R NEW BERN SUNNY 35 29 78 W12 30.18R RICHLANDS SUNNY 38 32 79 W7 30.20R ROCKY MOUNT SUNNY 34 27 75 W8 30.17R WASHINGTON SUNNY 36 28 71 W5 30.16R WHITEVILLE SUNNY 36 27 68 W5 30.23R $$ AMZ130-135-150-152-154-156-158-170-250-252-270-ANZ085-086-088-633-658-670-101500- MARINE OBSERVATIONS STATION/POSITION TIME TEMP WIND PRES WAVE SWELL AIR SEA DIR/SP/G HT/PER HT/PER (UTC) (F) (DEG/KT/KT) (MB) (FT/S) (FT/S) CHESAPEAKE LIGHT NOT AVBL 64 E VA BEACH 1350 44 61 320/ 17/ 23 1017.9 7/ 9 3/ 9 DUCK 1400 37 53 300/ 15/ 19 1019.1 2 E DUCK 1400 54 N/A 3/ 8 2/11 OREGON INLET 1400 39 49 290/ 14/ 19 1019.6 13E OREGON INLT 1348 57 N/A 6/ 8 5/ 8 HATTERAS CG 1400 40 52 320/ 24/ 26 1019.9 DIAMOND BUOY 1410 44 66 310/ 21/ 27 1020.3 CAPE LOOKOUT 1400 310/ 15/ 19 1021.5 BEAUFORT LAB 1400 37 51 320/ 10/ 13 1021.7 30 SE NEW RVR IN 1408 43 63 350/ 17/ 23 1022.3 30 SE NEW RVR IN 1400 63 N/A 7/ 6 27 SE WRIGHTSVLE 1408 44 66 320/ 19/ 31 1022.1 5 SE WRIGHTSVLE 1408 40 58 310/ 16/ 21 1022.5 225 S CAPE HAT 1350 61 75 310/ 19/ 25 1018.8 12/ 9 3/17 41 SE CHARLESTON 1410 73 350/ 16/ 21 1024.1 $$

USA.gov is the U.S. government's official web portal to all federal, state and local government web resources and services.